SCP
2 2 3 3 3 1 0 0 0 0 0 0 0 0 0 0 0 0 0 1 1 1 1 1 0 0 0 0 0 1 1 1 1 1 1 1 1 0 1 1 1 1 1 1 1 2 1 1 1
2 2 3 3 2 1 0 0 0 0 0 0 0 0 0 0 0 0 0 1 1 1 1 0 0 0 0 0 1 1 1 1 1 1 1 1 1 1 1 1 1 1 1 1 1 1 1 1 1
3 3 3 2 1 0 0 0 0 0 0 0 0 0 0 0 0 0 0 1 1 1 1 1 0 0 0 0 1 1 1 1 1 1 1 0 0 1 1 1 1 1 1 1 1 1 1 1 1
3 3 3 1 0 0 0 0 0 0 0 1 1 0 0 0 0 0 1 1 1 1 1 1 0 0 0 0 0 1 1 1 1 1 1 0 0 1 1 1 1 1 1 1 1 1 1 1 1
4 3 2 1 0 0 0 0 0 0 0 1 1 1 1 0 0 0 1 1 1 1 1 1 1 0 0 0 0 1 1 1 1 1 1 0 0 0 1 1 1 1 1 1 1 1 1 1 1
4 3 1 0 0 0 0 0 0 0 0 1 1 1 1 1 1 1 1 1 1 1 1 1 1 0 0 0 1 1 0 0 0 0 0 0 0 0 0 1 1 1 1 1 1 1 1 1 1
2 2 1 0 0 0 0 0 0 0 0 1 1 1 1 1 1 1 1 1 1 1 1 1 1 1 1 1 1 1 1 0 0 0 0 0 1 0 0 1 1 1 1 1 1 1 1 1 1
1 0 0 0 0 0 0 0 0 0 0 1 1 1 1 1 1 1 2 2 1 1 1 1 1 1 1 1 1 1 1 1 1 1 1 1 1 1 1 1 1 1 1 1 1 1 1 0 0
0 0 0 0 0 0 0 0 0 0 1 1 1 1 1 2 2 2 2 2 2 1 1 1 1 1 1 1 1 1 1 1 1 1 1 1 1 1 1 1 1 1 1 1 1 1 1 1 1
0 0 0 0 0 0 0 0 0 1 1 2 2 2 1 2 2 3 3 3 3 2 1 1 1 1 1 1 1 1 1 1 1 1 1 1 1 1 1 1 1 1 1 1 1 1 1 1 1
0 0 0 0 0 0 0 0 0 1 1 3 3 2 2 2 2 3 3 3 3 3 2 2 1 1 1 1 1 1 1 1 1 1 1 1 1 1 1 1 1 1 1 1 1 1 1 1 1
0 0 0 0 0 0 0 0 1 1 2 3 3 2 2 2 3 3 4 3 3 3 3 2 2 1 1 1 1 1 1 1 1 1 2 2 2 1 1 1 1 1 1 1 1 1 1 1 1
0 0 0 0 0 0 0 0 1 1 2 4 3 2 2 2 2 3 4 4 3 3 3 3 2 1 1 1 2 2 2 2 2 2 2 2 2 2 2 1 1 1 1 1 1 1 1 1 1
0 0 0 0 0 0 0 0 1 2 3 4 3 2 1 2 2 2 3 3 3 3 3 3 2 2 1 2 2 2 2 2 2 2 2 2 2 2 2 1 1 1 1 1 1 1 1 1 1
0 0 0 0 0 0 0 0 1 2 3 4 4 3 2 1 2 2 2 3 3 3 3 2 2 2 2 2 2 2 2 2 2 2 2 2 2 2 2 2 1 1 1 2 2 1 1 1 1
0 0 0 0 0 0 0 0 1 1 2 3 3 3 2 2 2 2 2 2 3 3 3 2 2 2 2 3 3 2 2 2 2 2 3 3 2 2 2 1 1 1 1 1 2 2 1 1 1
0 0 0 0 0 0 1 1 1 1 2 2 3 3 3 3 2 2 2 2 3 3 2 2 2 2 2 3 3 2 2 2 2 3 4 4 4 3 2 1 1 1 1 1 1 2 2 2 1
0 0 0 0 0 0 1 1 1 1 1 2 3 3 4 4 4 3 3 3 3 3 3 2 2 2 2 2 2 2 2 2 2 3 4 5 5 4 3 2 1 1 1 1 2 2 2 2 2
0 0 0 0 0 0 1 1 1 1 1 2 2 3 4 6 7 5 3 3 3 4 5 4 4 3 3 3 2 2 2 2 2 3 4 5 6 6 5 4 2 2 1 2 2 2 2 1 1
0 0 0 0 0 0 1 1 1 1 1 1 2 3 4 7 10 8 4 3 3 4 5 5 4 4 4 3 3 3 3 3 3 3 4 4 6 7 7 5 3 2 1 2 2 2 1 1 1
0 0 0 0 0 1 1 1 1 1 1 1 2 2 3 6 10 10 6 3 3 3 4 5 5 5 5 4 4 4 4 3 3 3 4 5 5 6 7 6 4 3 3 3 2 2 2 1 1
0 0 0 0 0 1 1 1 1 1 1 1 2 2 2 5 9 10 7 4 3 3 4 5 6 6 5 5 5 4 4 3 3 3 4 5 5 5 6 6 4 4 4 4 3 3 2 2 1
0 0 0 0 0 1 1 1 2 1 1 1 2 2 3 4 7 10 9 6 4 4 4 6 8 7 6 5 5 4 4 3 3 3 4 5 5 4 5 6 5 4 4 4 3 3 3 2 2
0 0 0 0 0 1 1 1 2 2 1 1 2 3 3 4 7 10 10 8 5 3 4 6 7 7 6 5 5 4 4 3 3 4 4 5 4 4 5 5 4 4 3 3 2 2 2 2 2
0 0 0 0 0 0 1 1 1 2 1 1 2 2 3 5 7 10 11 8 5 3 4 5 7 7 6 5 5 5 4 4 4 5 5 6 5 5 5 4 4 3 3 2 2 2 2 2 2
0 0 0 0 0 0 0 1 1 2 2 2 2 2 3 5 7 9 10 7 5 4 4 6 8 8 7 6 5 5 5 5 5 6 6 6 6 6 5 5 4 3 3 2 2 3 3 3 3
0 0 0 0 0 0 0 1 1 2 2 2 2 2 3 5 7 8 8 6 5 5 5 7 10 12 10 8 6 6 6 6 6 6 6 5 5 5 5 4 4 4 3 3 3 3 3 3 3
0 0 0 0 0 0 0 0 1 2 2 2 2 2 3 5 7 7 6 5 5 6 6 9 14 16 13 10 8 7 7 6 6 6 5 5 5 5 5 4 4 4 4 4 4 3 3 3 2
0 0 0 0 1 0 0 0 1 2 2 1 2 2 3 5 7 6 5 5 5 6 8 12 16 18 15 11 10 10 9 8 7 7 6 5 5 6 5 5 5 5 5 4 4 3 3 2 2
0 0 0 0 1 1 0 0 1 1 1 1 2 2 3 5 6 5 4 4 5 7 9 13 17 18 15 12 11 11 11 10 9 8 7 6 5 5 5 5 5 5 5 4 4 3 2 2 2
Wind_Speed
9 10 9 6 3 6 15 15 15 15 16 16 16 16 19 18 14 12 8 10 12 14 13 13 13 14 14 14 15 14 15 15 15 14 15 15 16 16 16 16 16 16 16 16 15 16 16 15 15
9 12 9 5 3 11 15 14 15 15 15 15 17 19 20 19 16 13 10 11 13 14 13 13 13 14 14 14 14 14 14 15 14 14 15 15 16 16 16 16 15 15 16 15 15 15 15 14 13
12 15 7 2 12 13 15 14 13 13 13 15 18 17 15 13 14 11 11 12 14 15 14 13 14 14 14 14 14 13 14 14 14 14 15 15 15 15 15 14 14 15 15 14 14 14 13 12 11
9 7 2 9 17 17 15 12 12 14 14 15 15 14 15 14 14 13 12 13 14 15 15 13 13 14 14 14 13 13 13 13 14 14 14 14 14 14 14 14 14 13 13 13 13 13 12 11 9
9 1 8 14 17 15 13 12 13 14 16 18 19 18 16 14 15 14 12 13 14 15 14 13 13 13 13 13 13 13 13 13 13 13 13 13 13 13 13 13 13 12 12 12 12 11 10 8 7
4 2 8 13 16 15 13 13 15 15 16 18 19 18 14 12 12 12 12 12 13 14 14 12 13 13 12 12 12 12 12 12 12 13 12 12 12 12 12 12 11 11 11 10 10 9 8 6 4
1 4 12 16 15 14 13 13 14 14 14 13 16 16 13 11 11 11 11 12 12 12 12 11 11 11 12 12 11 12 11 11 11 11 11 11 11 11 11 10 10 10 9 9 8 8 7 5 3
1 5 12 14 15 15 14 13 14 14 13 12 12 13 12 12 11 11 11 11 11 10 10 9 9 9 10 10 10 11 10 10 9 9 9 9 9 9 9 9 8 8 7 6 6 6 5 4 3
3 6 11 13 14 14 13 14 15 15 15 15 16 17 16 14 13 11 9 9 9 9 7 8 8 7 8 9 10 9 9 8 7 6 7 7 5 6 6 8 8 7 6 5 5 5 4 4 5
6 9 15 14 14 14 13 13 14 13 15 17 17 17 16 14 12 10 9 9 9 8 7 6 6 5 6 6 6 5 5 5 4 3 4 3 2 2 6 8 7 6 5 6 6 6 6 6 4
11 13 14 14 14 14 13 12 12 14 14 16 16 16 14 13 12 10 9 9 8 7 7 7 4 3 4 4 4 3 3 3 3 3 3 2 2 3 4 3 4 4 5 4 5 5 4 4 3
11 13 13 13 13 13 13 13 14 15 16 17 16 15 14 12 11 10 9 9 8 6 7 7 5 4 3 3 2 2 3 2 3 2 2 2 1 1 1 1 2 3 2 2 2 2 2 0 0
10 11 12 12 12 12 13 14 15 16 17 17 16 14 13 12 11 10 10 9 8 7 7 6 5 4 3 2 1 2 2 2 3 2 1 1 1 1 1 0 1 0 1 2 0 0 1 1 1
8 9 11 11 12 12 13 13 13 15 16 15 15 13 12 12 11 10 9 9 8 7 7 7 6 5 3 1 1 1 2 2 2 2 2 1 1 2 1 0 1 1 1 1 0 0 1 0 1
6 7 9 9 11 12 12 12 13 15 15 14 13 12 11 11 10 10 9 8 7 7 7 6 6 6 3 2 1 0 1 2 2 2 2 1 2 2 0 0 0 1 1 0 0 0 0 1 1
7 7 7 8 9 9 7 10 13 15 14 13 12 12 11 10 10 10 10 8 7 7 6 5 5 6 4 2 0 1 1 1 1 2 2 2 1 1 0 0 0 0 1 0 0 0 0 0 0
6 6 7 9 9 9 6 11 14 14 14 13 12 12 12 10 10 10 10 9 8 7 6 4 4 5 4 3 1 1 0 0 0 1 1 2 2 2 1 1 0 1 1 0 1 1 0 0 0
6 5 5 7 8 7 7 12 15 14 13 13 12 12 12 12 11 10 10 10 9 8 6 5 4 4 3 3 2 1 1 1 0 1 0 1 1 2 1 1 1 1 0 0 1 1 0 0 1
5 3 3 6 6 5 6 10 13 14 13 13 13 13 12 12 12 11 10 10 10 8 7 6 5 4 3 2 2 2 2 1 1 1 2 1 1 1 1 1 1 0 0 1 1 0 0 1 0
7 6 5 6 7 4 4 6 9 11 12 13 13 14 14 13 13 12 11 10 10 9 8 6 5 5 4 2 2 2 1 2 2 1 2 1 1 1 1 1 1 1 1 0 1 0 1 1 1
8 6 5 4 5 5 5 5 9 11 11 12 13 13 14 15 14 13 12 11 11 10 9 7 6 5 4 3 2 2 1 1 1 1 1 1 1 1 1 0 1 1 1 1 2 2 2 2 2
8 6 5 5 4 4 5 4 8 11 11 11 12 13 14 15 15 15 13 12 11 11 10 7 7 6 5 4 3 3 2 2 1 1 1 1 1 1 1 1 1 1 1 1 2 2 2 2 2
7 5 7 7 6 5 6 4 6 11 12 13 12 13 14 14 16 15 15 13 11 11 10 9 7 6 5 4 4 3 2 1 1 1 1 1 2 2 2 1 1 1 1 1 2 1 1 1 2
7 8 9 9 7 7 7 5 5 7 9 11 12 12 13 14 15 14 14 12 11 11 10 10 8 7 6 5 4 3 3 2 1 1 1 1 1 1 1 1 0 0 1 1 1 1 1 1 2
9 8 6 7 7 6 7 5 4 7 7 9 10 11 12 13 13 14 14 13 12 11 10 9 9 8 7 6 4 3 3 2 2 1 1 1 1 0 0 0 1 0 1 1 1 1 1 1 1
11 11 9 7 6 5 6 4 5 9 9 9 8 9 11 12 12 13 13 12 12 11 10 9 9 8 7 6 5 3 3 2 1 1 1 1 1 0 1 1 1 0 1 1 1 1 1 1 1
12 12 13 11 9 7 5 6 7 9 10 10 10 9 9 11 12 13 13 13 12 11 11 10 9 8 7 6 6 4 3 2 1 1 1 0 1 1 2 2 1 1 1 1 1 1 2 1 1
14 12 9 9 6 7 7 7 7 10 9 9 9 10 9 10 11 12 11 12 11 10 10 10 9 8 7 6 5 5 4 3 1 1 1 1 1 2 3 2 2 2 2 2 1 1 2 1 1
14 14 10 7 6 8 6 4 2 9 9 9 9 8 8 9 10 10 10 10 11 11 10 10 9 9 7 6 5 4 5 4 3 2 2 1 1 2 2 2 2 2 2 2 2 2 2 2 2
13 13 12 8 6 6 7 4 2 7 8 9 10 10 9 8 9 10 10 10 10 10 10 10 9 9 8 7 6 5 5 5 4 3 2 2 2 2 2 2 2 2 2 2 2 2 2 2 2
Wind_Direction
202 215 217 238 222 79 68 67 67 67 66 62 62 64 60 56 66 87 105 98 98 96 93 84 77 80 80 78 77 77 79 80 80 82 87 91 93 94 94 94 95 96 97 97 97 98 97 98 100
223 217 221 239 72 74 69 69 69 70 76 75 74 73 72 71 82 96 101 100 99 97 90 85 84 83 83 82 81 80 83 82 82 82 87 89 93 93 93 95 95 96 97 97 98 98 99 100 103
247 244 247 75 65 71 74 73 80 80 81 81 75 64 64 79 83 98 110 109 101 97 93 91 88 86 85 83 83 82 86 85 85 84 87 88 92 92 96 96 97 97 98 98 99 99 100 102 105
247 231 155 76 74 72 76 81 85 87 82 81 82 75 70 76 95 108 114 110 104 100 98 95 92 90 88 86 85 84 87 87 85 85 88 90 92 94 96 98 98 98 98 98 101 102 102 103 105
240 221 90 83 81 81 80 83 85 83 83 82 84 90 86 87 103 109 110 108 104 102 104 103 99 95 92 90 89 86 85 88 87 88 90 93 94 97 99 100 101 101 101 101 102 103 105 107 109
244 134 93 86 84 83 83 83 85 87 89 97 100 98 94 102 105 104 104 104 105 106 109 112 108 104 100 96 94 94 90 90 91 91 92 95 98 99 101 101 104 104 104 105 106 107 109 113 115
235 89 93 94 91 87 84 86 89 92 96 103 109 105 108 109 103 103 103 103 103 105 112 118 120 117 111 105 103 101 100 99 98 99 100 100 102 105 105 107 107 107 108 111 113 116 118 123 131
137 86 89 92 93 90 90 89 91 92 88 102 115 110 121 126 122 110 103 102 103 105 111 117 121 128 128 119 116 114 112 111 110 112 116 117 117 118 119 116 115 117 119 125 129 130 134 150 184
75 83 84 90 96 100 101 97 91 91 88 79 83 105 122 129 123 115 109 105 99 99 108 117 120 134 130 123 128 133 130 129 132 136 141 144 146 140 140 117 126 132 143 154 159 160 167 193 214
85 81 83 87 98 104 104 105 111 107 100 95 97 107 122 127 122 120 125 119 110 110 111 104 108 121 119 114 131 144 135 144 156 139 156 173 139 109 111 126 145 157 171 183 193 191 197 219 218
83 88 93 94 100 105 108 108 110 109 109 113 119 125 129 129 128 132 128 116 114 118 109 107 100 84 94 110 133 129 122 140 139 138 154 140 121 119 122 148 161 181 192 200 189 198 212 214 212
92 92 94 94 97 100 100 97 90 92 104 116 123 128 131 135 133 128 122 120 127 123 113 109 106 80 63 81 104 134 129 137 132 143 146 123 114 129 124 142 175 185 187 190 197 199 185 237 267
97 101 102 103 103 98 96 92 94 97 108 118 126 133 138 134 133 130 128 127 126 125 119 114 109 89 69 59 21 109 112 118 121 128 106 109 117 85 75 25 320 234 157 150 157 45 84 23 358
106 112 113 114 110 105 102 104 105 111 119 126 135 141 142 136 141 137 134 131 135 136 128 126 124 114 100 84 12 40 98 117 126 118 102 73 89 90 77 7 327 329 24 87 119 90 74 31 33
132 127 125 132 127 127 122 117 118 129 132 137 141 143 141 141 144 141 139 141 145 139 127 130 136 129 137 144 228 129 129 121 106 106 114 101 74 89 106 290 246 340 351 63 135 341 271 200 150
175 161 152 144 141 144 137 122 132 141 142 144 148 146 145 147 150 145 141 146 144 136 134 152 145 135 143 155 261 332 42 70 108 125 124 138 123 140 296 302 125 307 278 181 136 233 290 41 96
196 180 165 145 141 147 151 134 144 150 150 151 154 154 154 155 158 150 150 154 147 139 141 146 131 139 150 159 191 225 130 341 184 119 139 169 170 173 195 226 117 283 313 335 273 120 104 112 345
206 187 161 139 140 148 141 133 150 158 159 157 161 161 162 163 164 159 159 156 150 147 147 147 147 143 157 163 185 214 198 214 202 126 159 165 179 176 199 209 204 238 335 335 5 22 8 249 234
228 222 173 137 141 151 146 145 155 163 167 163 167 168 167 166 163 162 163 158 155 154 154 159 166 159 172 179 192 184 197 210 185 173 155 164 227 173 196 287 194 223 186 223 228 199 309 270 208
233 223 197 150 151 172 164 155 158 169 176 171 171 171 170 166 165 164 164 164 161 159 161 165 168 170 183 188 202 194 201 207 188 178 137 190 220 224 208 206 248 212 185 203 247 201 223 262 221
233 232 221 187 171 188 183 174 170 183 182 172 173 174 173 172 170 169 171 173 170 168 169 176 175 170 182 187 194 214 199 246 181 159 154 198 221 202 304 155 263 283 212 208 218 230 234 242 258
232 239 242 224 222 224 213 179 182 179 182 181 177 176 176 174 172 173 176 176 175 172 171 170 168 170 177 186 203 210 209 210 224 192 167 200 234 236 208 212 224 252 258 239 241 215 248 235 254
243 243 251 244 242 247 240 211 190 177 182 183 181 179 176 175 173 175 177 175 177 175 171 169 166 170 174 189 207 222 227 218 221 197 169 212 217 229 236 194 213 236 259 247 268 276 263 255 264
243 244 251 253 250 240 238 233 182 176 177 173 175 177 176 174 171 171 171 169 176 176 171 168 166 171 174 184 198 204 224 243 248 240 189 216 223 250 284 212 135 297 292 282 279 280 265 273 289
224 235 242 241 234 235 227 228 170 159 159 159 165 171 172 171 170 169 169 169 175 175 170 167 165 170 176 181 194 192 209 231 232 234 215 235 254 218 315 338 108 305 307 306 302 275 281 289 281
222 229 237 249 251 235 216 204 159 142 141 143 151 160 162 164 169 170 169 169 174 173 169 167 164 169 174 178 186 186 198 211 212 227 258 233 271 197 103 78 97 44 331 336 353 325 310 338 309
227 236 243 252 263 269 228 179 164 153 146 144 152 155 161 165 167 165 167 170 172 171 169 167 161 163 169 175 177 174 180 193 194 174 218 275 318 83 92 85 85 61 38 11 11 6 2 9 354
236 237 244 249 264 272 263 217 184 161 156 152 151 146 157 162 159 160 166 169 168 165 159 159 157 159 165 169 178 167 166 167 168 114 117 54 56 66 89 83 79 70 52 29 19 35 22 20 18
222 232 241 258 258 251 263 275 154 156 158 152 149 150 154 158 155 156 162 164 159 158 156 154 155 155 160 164 163 159 156 151 142 131 118 102 71 81 85 77 73 73 67 50 37 42 41 30 31
235 235 234 240 251 269 272 259 181 146 151 153 149 147 146 147 151 151 154 155 152 154 156 155 158 161 163 162 158 158 142 143 146 137 120 121 114 101 91 82 70 64 62 53 46 39 41 37 39